Tracking 30009 objects as of 7-Dec-2024
HD Live streaming from Space Station
objects crossing your sky now

STARLINK-30253

Track STARLINK-30253 now!
10-day predictions
STARLINK-30253 is classified as:


NORAD ID: 57525
Int'l Code: 2023-115E
Perigee: 565.4 km
Apogee: 567.0 km
Inclination: 43.0 °
Period: 95.8 minutes
Semi major axis: 6937 km
RCS: Unknown
Launch date: August 8, 2023
Source: United States (US)
Launch site: AIR FORCE WESTERN TEST RANGE (AFWTR)
Your satellite tracking list
Your tracking list is empty




NASA's NSSDC Master Catalog

Two Line Element Set (TLE):
1 57525U 23115E   24341.38963151  .00000702  00000-0  67057-4 0  9994
2 57525  43.0029 335.0558 0001146 272.5564  87.5147 15.02540370 73375
Source of the keplerian elements: AFSPC